www.pogodaiklimat.ru

ПОГОДА на Острове Бартер, AK

  • Прогноз погоды на Острове Бартер
  • Монитор погоды на Острове Бартер
  • Климат на Острове Бартер

АРХИВ ПОГОДЫ на Острове Бартер

Время (UTC), дата Ветер
(напр.,м/с)
 
Видим.   Явления Облачность Т
(С)
Тd
(С)
f
(%)
Тe
(С)
Тes
(С)
Комфортность

P
(гПа)

Po
(гПа)
Тmin
(С)
Tmax
(С)
R
(мм)
SD
(см)
21:03 24.06 З  11  16 км  слабый дождь  10/10 300 м  +3.0  +2.0  93  -5  -5      1018.6         
21:37 24.06 З  11  16 км  слабый дождь  10/10 240 м  +3.0  +2.0  93  -5  -5      1018.9         
21:52 24.06 З  10
{13} 
16 км  слабый дождь  10/10 240 м  +2.2  +1.1  92  -6  -6    1017.6  1018.9         
22:52 24.06 З  11  14 км  слабый дождь  10/10 180 м  +2.2  +1.1  92  -6  -6    1017.9  1018.9  +2.2  +3.9  0.3   
23:52 24.06 З  16 км    10/10 180 м  +2.2  +1.7  96  -6  -6    1018.2  1019.3         
00:52 25.06 З  10  16 км    10/10 180 м  +2.2  +1.1  92  -6  -6    1018.4  1019.6         
01:02 25.06 З  16 км    10/10 180 м  +2.0  +1.0  93  -6  -6      1019.6         
01:17 25.06 СЗ  9
{12} 
16 км    10/10 300 м  +2.0  +1.0  93  -6  -6      1019.6         
01:20 25.06 СЗ  10
{12} 
16 км    10/10 300 м  +2.0  +1.0  93  -6  -6      1019.6         
01:23 25.06 СЗ  16 км    10/10 240 м  +2.0  +1.0  93  -6  -6      1020.0         
01:27 25.06 З  10  16 км    10/10 240 м  +2.0  +1.0  93  -6  -6      1020.0         
01:52 25.06 СЗ  16 км    10/10 240 м  +2.2  +1.1  92  -5  -5    1018.9  1020.0      0.3   
02:52 25.06 З  10  16 км    10/10 240 м  +2.2  +0.6  89  -6  -6    1019.1  1020.3         
03:52 25.06 З  16 км    10/10 240 м  +1.7  0.0  88  -6  -6    1019.5  1020.6         
04:52 25.06 З  16 км    10/10 180 м  +1.7  +0.6  92  -6  -6    1019.8  1021.0  +1.7  +2.2  0.3   
05:17 25.06 З  16 км    10/10 120 м  +1.0  +1.0  100  -7  -7      1021.0         
05:52 25.06 З  14 км    10/10 120 м  +1.1  +0.6  96  -6  -6    1020.0  1021.3         
06:52 25.06 З  16 км    10/10 120 м  +1.1  +0.6  96  -7  -7    1020.2  1021.3         
07:52 25.06 З  16 км    8/8 120 м  +0.6  0.0  96  -7  -7    1020.6  1021.7         
08:52 25.06 З  16 км    8/8 120 м  +0.6  0.0  96  -7  -7    1020.7  1022.0         
08:57 25.06 З  16 км    10/10 180 м  +1.0  0.0  93  -6  -6      1022.0         
09:27 25.06 З  10 км  дымка  10/10 120 м  +1.0  -1.0  86  -6  -6      1022.0         
09:43 25.06 З  4 км  дымка  10/10 120 м  +1.0  -1.0  86  -6  -6      1022.0         
09:52 25.06 З  4 км  дымка  10/10 120 м  0.0  -0.6  96  -8  -8    1021.0  1022.0         
09:55 25.06 З  6 км  дымка  10/10 120 м  +1.0  -1.0  86  -7  -7      1022.0         
10:15 25.06 З  16 км    10/10 180 м  +1.0  -1.0  86  -7  -7      1022.0         
10:52 25.06 З  16 км    10/10 240 м  +1.1  0.0  92  -7  -7    1021.1  1022.3  0.0  +1.7     
11:03 25.06 З  16 км    10/10 300 м  +1.0  0.0  93  -7  -7      1022.3         
11:26 25.06 З  14 км    10/10 240 м  +1.0  -1.0  86  -7  -7      1022.3         
11:52 25.06 З  11 км    10/10 240 м  +0.6  -0.6  92  -7  -7    1021.3  1022.3         
12:52 25.06 З  9
{12} 
16 км  слабый дождь  10/10 240 м  +0.6  0.0  96  -8  -8    1021.4  1022.7         
12:56 25.06 З  16 км  слабый дождь  10/10 240 м  +1.0  0.0  93  -7  -7      1022.7         
13:00 25.06 З  16 км  слабый дождь  10/10 240 м  +1.0  0.0  93  -7  -7      1022.7         
13:52 25.06 З  16 км    10/10 240 м  +1.1  +0.6  96  -7  -7    1021.7  1022.7         
14:05 25.06 З  10  16 км    10/10 180 м  +1.0  0.0  93  -7  -7      1022.7         
14:16 25.06 З  16 км    10/10 300 м  +2.0  0.0  87  -6  -6      1023.0         
14:52 25.06 З  16 км    10/10 690 м  +1.7  0.0  88  -6  -6    1021.9  1023.0         
15:47 25.06 З  10
{13} 
16 км    5/5 630 м  +3.0  -1.0  75  -4  -4      1023.0         
15:52 25.06 З  11  16 км    5/5 630 м  +2.8  -1.1  75  -5  -5    1022.0  1023.0         
16:52 25.06 З  10  16 км    2/2 630 м  +2.2  -1.1  79  -6  -6    1022.3  1023.3  +0.6  +2.8     
17:05 25.06 З  11
{13} 
16 км    8/8 630 м  +2.0  -2.0  75  -6  -6      1023.3         
17:09 25.06 З  11
{13} 
16 км    5/5 630 м  +2.0  -1.0  80  -6  -6      1023.7         
17:15 25.06 З  12
{13} 
16 км    8/8 630 м  +2.0  -2.0  75  -6  -6      1023.7         
17:23 25.06 З  11  16 км    5/5 630 м  +2.0  -2.0  75  -6  -6      1023.7         
17:52 25.06 З  11  16 км    5/5 480 м  +2.2  -1.7  75  -6  -6    1022.8  1024.0         
18:16 25.06 З  11  16 км    8/8 540 м  +2.0  -2.0  75  -6  -6      1024.0         
18:52 25.06 З  11
{14} 
16 км    10/10 540 м  +2.8  -1.7  72  -5  -5    1023.0  1024.0         
19:52 25.06 З  11  16 км    10/10 600 м  +2.2  -1.7  75  -6  -6    1023.4  1024.7         

 

Местоположение метеостанции Barter Island LRRS Airport: широта 70.1339 долгота -143.5769 высота над уровнем моря 2 м.

В архиве по умолчанию представлена погода на Острове Бартер за последние 1-2 суток. Обновление информации о фактической погоде в базе происходит ежечасно! Архивные данные за месяц целиком и за предыдущие месяцы Вы можете получить, выбрав интересующий диапазон дат из раскрывающегося списка и нажав кнопку "Ввод!".

Внимание! Архив погоды МЕТАР в базе сайта хранится не более 60 дней. Нет смысла пытаться выбрать более раннюю дату.

Внимание! Время в таблицах - всемирное. Для получения местного времени необходимо прибавить поправку, которая на Острове Бартер равна -9 ч.

Ветер - указаны скорость ветра в м/с и направление, откуда дует ветер: С - северный, СВ - северо-восточный, В - восточный, ЮВ - юго-восточный, Ю - южный, ЮЗ - юго-западный, З - западный, СЗ - северо-западный.
Видимость - горизонтальная дальность видимости в метрах или километрах. При видимости от 1 до 10 км при отсутствии осадков обычно наблюдается дымка, при ухудшении видимости до 1 км и менее - туман. В сухую погоду видимость может ухудшаться дымом, пылью или мглою.
Атмосферные явления - указаны явления, наблюдавшиеся в указанный момент времени.
Облачность - указаны через наклонную черту верхняя и нижняя облачность в баллах и высота нижней границы облаков в метрах. Внимание: облачность, как и прочие метеорологические величины в США измеряются автоматическими метеостанциями. Указанные значения в баллах носят условный характер и показывают процент времени, в течение которого, в среднем, лазерный луч высотомера отражался от облаков обратно.
T - Температура воздуха - температура, измеренная на высоте 2 м над землей.
Td - Температура точки росы - температура, при понижении до которой содержащийся в воздухе водяной пар достигнет насыщения.
f - Относительная влажность воздуха - влажноcть воздуха, измеренная на высоте 2 м над землей.
Te - Эффективная температура - температура, которую ощущает одетый по сезону человек в тени. Характеристика душности погоды. При расчете учитывается влияние влажности воздуха и скорости ветра на теплоощущения человека.
Tes - Эффективная температура на солнце - температура, которую ощущает человек, с поправкой на солнечный нагрев. Характеристика знойности погоды. Зависит от высоты солнца над горизонтом, облачности и скорости ветра. Ночью, в пасмурную погоду, а также при ветре 12 м/с и более поправка равна нулю.
P - Атмосферное давление - приведенное к уровню моря атмосферное давление.
Po - Атмосферное давление - измеренное на уровне метеостанции атмосферное давление.
Tmin - Минимальная температура - минимум температуры воздуха на высоте 2 м над землей.
Tmax - Максимальная температура - максимум температуры воздуха на высоте 2 м над землей.
R - Количество осадков - Количество выпавших осадков за 3 или 6 часов, мм.
SD - Снежный покров - Высота снежного покрова, см.